Home   Weather   Durban   Past weeks

Flag for South Africa Past Weather in Durban, South Africa — Yesterday and Last 2 Weeks

77 °F

Passing clouds.

Feels Like: 79 °F
Forecast: 70 / 76 °F
Wind: 10 mph from Northeast

Location: King Shaka International Airport

Current Time: Oct 27, 2016 at 4:46:02 PM

Latest Report: Oct 27, 2016 at 4:00 PM

Visibility: N/A

Pressure: 29.86 "Hg

Humidity: 74%

Dew Point: 68 °F

Location of DurbanLocation

Past Weather in Durban — Graph


Durban Temperature Yesterday

Maximum temperature yesterday: 72 °F (at 1:00 PM)
Minimum temperature yesterday: 66 °F (at 12:00 AM)
Average temperature yesterday: 68 °F

High & Low Weather Summary for the Past Weeks

High88 °F (Oct 15, 1:00 PM)88% (Oct 12, 6:00 PM)30.36 "Hg (Oct 12, 6:00 PM)
Low59 °F (Oct 12, 11:00 PM)46% (Oct 15, 1:00 PM)29.56 "Hg (Oct 15, 3:00 PM)
Average68 °F76%30.02 "Hg
* Reported Oct 12 3:00 PM — Oct 27 3:00 PM, Durban, Weather by CustomWeather, © 2016

Note: Actual official high and low records may vary slightly from our data, if they occured in-between our weather recording intervals... More about our weather records


Durban Weather History for the Previous 24 Hours

Scroll right to see more
Time TempWeatherWind HumidityBarometerVisibility
3:00 PM
Thu, Oct 27
79 °FPassing clouds.9 mph70%29.83 "HgN/A
2:00 PM79 °FPassing clouds.8 mph70%29.83 "HgN/A
1:00 PM81 °FPassing clouds.7 mph66%29.83 "HgN/A
12:00 PM81 °FPassing clouds.8 mph66%29.83 "HgN/A
11:00 AM79 °FScattered clouds.9 mph70%29.86 "HgN/A
10:00 AM79 °FBroken clouds.7 mph70%29.86 "HgN/A
9:00 AM75 °FBroken clouds.6 mph74%29.86 "HgN/A
8:00 AM73 °FScattered clouds.5 mph74%29.86 "HgN/A
7:00 AM70 °FFog.5 mph88%29.86 "Hg2 mi
6:51 AM70 °FFog.5 mph88%29.86 "Hg2 mi
5:00 AM66 °FPassing clouds.7 mph88%29.86 "Hg4 mi
4:00 AM68 °FFog.8 mph88%29.86 "Hg2 mi
3:55 AM68 °FFog.8 mph88%29.86 "Hg2 mi
2:00 AM68 °FLow clouds.5 mph88%29.89 "HgN/A
1:00 AM68 °FMostly cloudy.2 mph83%29.92 "HgN/A
12:00 AM68 °FMostly cloudy.1 mph83%29.95 "HgN/A
11:00 PM
Wed, Oct 26
68 °FOvercast.3 mph83%29.98 "HgN/A
10:00 PM66 °FMostly cloudy.3 mph88%30.01 "HgN/A
9:00 PM66 °FMostly cloudy.3 mph88%30.01 "HgN/A
8:00 PM68 °FDrizzle. Overcast.3 mph83%29.98 "Hg3 mi
7:00 PM68 °FDrizzle. Mostly cloudy.2 mph83%29.98 "Hg3 mi
6:00 PM70 °FMostly cloudy.2 mph73%29.95 "HgN/A
5:00 PM70 °FMore clouds than sun.5 mph73%29.95 "HgN/A
4:00 PM70 °FMostly cloudy.7 mph73%29.95 "HgN/A
Weather by CustomWeather, © 2016

See weather overviewHow to use our weather pages